Regional Weather Roundup
Issued by NWS

Home | Current Version | Previous Version | Graphics & Text | Print | Product List | Glossary On
Versions: 1 2 3 4 5 6 7 8 9 10 11 12 13 14 15 16 17 18 19 20 21 22 23 24 25 26 27 28 29 30 31 32 33 34 35 36 37 38 39 40 41 42 43 44 45 46 47 48 49 50
000
ASUS43 KDTX 201401
RWRMI
MICHIGAN HOURLY REGIONAL WEATHER ROUNDUP
NATIONAL WEATHER SERVICE DETROIT/PONTIAC MI
1000 AM EDT FRI OCT 20 2017

NOTE: "FAIR" INDICATES FEW OR NO CLOUDS BELOW 12,000 FEET WITH NO
SIGNIFICANT WEATHER AND/OR OBSTRUCTION TO VISIBILITY.

MIZ047>049-052>055-059>063-066>070-074>076-081>083-201500-
SOUTHEAST LOWER MICHIGAN

CITY           SKY/WX    TMP DP  RH WIND       PRES   REMARKS
ADRIAN         SUNNY     51  39  63 CALM      30.30R
ALMA           SUNNY     53  34  48 SW12      30.22S
ANN ARBOR      SUNNY     53  38  56 S3        30.28S
BAD AXE        SUNNY     55  39  54 S3        30.23S
CARO           SUNNY     52  35  52 CALM      30.22F
DETROIT CITY   SUNNY     55  36  48 S3        30.29R
DETROIT        MOSUNNY   53  35  50 SW5       30.30R
FLINT          SUNNY     57  35  43 S7        30.25S
GROSSE ILE     SUNNY     54  38  54 W3        30.29R
HILLSDALE      SUNNY     54  32  43 S7        30.28S
HOWELL         SUNNY     54  35  48 S7        30.26S

CITY           SKY/WX    TMP DP  RH WIND       PRES   REMARKS
JACKSON        SUNNY     54  36  50 S8        30.26S
LAMBERTVILLE   SUNNY     58  39  50 CALM      30.28S
LANSING        SUNNY     58  40  51 S8        30.25R
LAPEER         FAIR      52  41  67 CALM      30.25S
MASON          SUNNY     55  40  57 S7        30.26R
MONROE         SUNNY     54  38  54 CALM      30.29S
MT. CLEMENS    MOSUNNY   58  48  69 S7        30.26R
PONTIAC        PTSUNNY   53  36  52 S6        30.27R
PORT HOPE        N/A     57  33  40 VRB5      30.21R
PORT HURON     SUNNY     54  41  62 S5        30.27S
TRI CITIES     SUNNY     55  36  48 S8        30.22S
MIDLAND        FAIR      53  36  52 CALM      30.20S
TROY           SUNNY     52  33  46 SW5       30.30S
SAGINAW HB     SUNNY     54  34  47 S7        30.21S
$$
MIZ043>046-050>051-056>058-064>065-071>073-077>080-201500-
SOUTHWEST LOWER MICHIGAN

CITY           SKY/WX    TMP DP  RH WIND       PRES   REMARKS
BATTLE CREEK   SUNNY     57  45  64 S5        30.25R
BENTON HARBOR  SUNNY     58  48  69 S8        30.21S
BIG RAPIDS     SUNNY     51  40  67 S7        30.18S
COLDWATER      SUNNY     55  34  45 S7        30.26S
FREMONT        FAIR      56  44  64 S5        30.18S
HOLLAND        SUNNY     56  46  69 S7        30.20S
GRAND RAPIDS   MOSUNNY   58  44  60 S10       30.21S
IONIA          FAIR      58  41  54 S6        30.22S
KALAMAZOO      SUNNY     55  43  63 S10       30.25R
LUDINGTON      SUNNY     60  50  71 S6        30.14S
MARSHALL       SUNNY     57  42  55 S7        30.25S
MOUNT PLEASANT SUNNY     57  36  45 SW6       30.19S
MUSKEGON       MOSUNNY   60  50  69 S7        30.18S
SOUTH HAVEN    SUNNY     58  47  66 S7        30.21S
$$
MIZ016>042-201500-
NORTHERN LOWER MICHIGAN

CITY           SKY/WX    TMP DP  RH WIND       PRES   REMARKS
ALPENA         SUNNY     55  37  50 S6        30.16F
BEAVER ISLAND  SUNNY     62  48  60 S14       30.07F
BELLAIRE       SUNNY     57  41  53 S3        30.13S
CADILLAC       SUNNY     57  38  48 S8        30.16S
CHARLEVOIX     SUNNY     60  41  50 S10G18    30.12F
FRANKFORT      SUNNY     63  49  60 S9G16     30.11S
GAYLORD        SUNNY     60  42  51 SW13      30.14S
GRAYLING       CLOUDY    56  36  47 S6        30.16S
HARBOR SPRINGS SUNNY     60  41  48 SW6       30.10F
HOUGHTON LAKE  SUNNY     59  40  49 SW9       30.18S
MANISTEE       SUNNY     55  45  68 E5        30.13S
OSCODA         SUNNY     53  35  50 SW10G17   30.19F
PELLSTON       SUNNY     62  43  49 SW7       30.10F
ROGERS CITY    SUNNY     55  35  47 S12       30.13F
TRAVERSE CITY  MOSUNNY   59  40  49 VRB3      30.11F
$$
MIZ007>008-015-201500-
EASTERN UPPER MICHIGAN

CITY           SKY/WX    TMP DP  RH WIND       PRES   REMARKS
KINROSS        MOSUNNY   58  44  60 SW7       30.08S
MACKINAC ISLAN MOSUNNY   58  39  48 S12       30.08S
NEWBERRY       SUNNY     57  56  95 S15G22    30.04S
S. S. MARIE    MOSUNNY   48  45  89 E5        30.07F
MUNISING         N/A     57  44  62 S9        29.99F
$$
MIZ004>006-011>014-085-201500-
CENTRAL UPPER MICHIGAN

CITY           SKY/WX    TMP DP  RH WIND       PRES   REMARKS
MANISTIQUE     SUNNY     57  51  80 S9        30.05S
ESCANABA       SUNNY     56  48  74 SW9       30.04S
MENOMINEE      SUNNY     58  48  69 SW7       30.06S
SAWYER-GWINN   SUNNY     46  37  71 SW6       30.01F
$$
MIZ001>003-009>011-084-201500-
WESTERN UPPER MICHIGAN

CITY           SKY/WX    TMP DP  RH WIND       PRES   REMARKS
IRON MOUNTAIN  SUNNY     48  36  63 SE5       30.01F
HOUGHTON       SUNNY     56  43  61 S7        29.92S
COPPER HARBOR    N/A     57  43  59 SW12      29.91S
IRONWOOD       SUNNY     58  46  64 SW9       29.92S
$$

ABBREVIATIONS USED IN REMARKS
   TC - TEMPERATURE IN CELSIUS
  WCI - WIND CHILL INDEX
   HX - HEAT INDEX
  VSB - VISIBILITY





USA.gov is the U.S. government's official web portal to all federal, state and local government web resources and services.